User: anonymous
Location: Pine Mountain Observatory
(43.7910°N, 120.9377°W)
Time: 12:53:26
(UTC-07:00)
Language:

APEX - Orbit

View from above orbital plane
View from above orbital plane
View from above satellite
View from above satellite

Ground track
Ground track

The orbit data is extracted from the following two-line orbital elements,

1 23191U 94046A   14273.44097617  .00029114  00000-0  11676-2 0   186
2 23191 069.9199 312.9967 0730641 159.2666 305.5315 14.07004274975310
Epoch (UTC): 30 September 2014 10:35:00
Eccentricity: 0.0730641
inclination: 69.9199°
perigee height: 340 km
apogee height: 1399 km
right ascension of ascending node: 312.9967°
argument of perigee: 159.2666°
revolutions per day: 14.07004274
mean anomaly at epoch: 305.5315°
orbit number at epoch: 97531

The dashed part of the orbit path shows where the satellite is in the earth's shadow,  

DLR